KO4T-4 Weather Reports


time (UTC)temp
C
wind
direction
speed
KPH
gust
KPH
rain 1hr
cm
rain 24hr
cm
rain mn
cm
humidity
%
barometer
mb
20260906044004 21 0 0.0 0.0 0.00 0.00 0.00 95 1015.0
20260906043503 21 0 0.0 0.0 0.00 0.00 0.00 95 1015.0
20260906043004 21 0 0.0 0.0 0.00 0.00 0.00 95 1015.0
20260906042503 21 0 0.0 0.0 0.00 0.00 0.00 95 1015.0
20260906042004 21 0 0.0 0.0 0.00 0.00 0.00 95 1015.2
20260906041503 21 0 0.0 0.0 0.00 0.00 0.00 95 1015.1
20260906041004 21 0 0.0 0.0 0.00 0.00 0.00 95 1015.2
20260906040503 21 0 0.0 0.0 0.00 0.00 0.00 95 1015.2
20260906040005 21 0 0.0 0.0 0.00 0.00 0.00 94 1015.3
20260906035503 21 0 0.0 0.0 0.00 0.00 0.00 94 1015.3
20260906035004 21 95 0.0 1.6 0.00 0.00 0.00 94 1015.3
20260906034503 21 95 0.0 1.6 0.00 0.00 0.00 94 1015.4
20260906034004 21 0 0.0 0.0 0.00 0.00 0.00 94 1015.5
20260906033503 21 0 0.0 0.0 0.00 0.00 0.00 94 1015.4
20260906033003 21 0 0.0 0.0 0.00 0.00 0.00 94 1015.4
20260906032504 21 0 0.0 0.0 0.00 0.00 0.00 94 1015.4
20260906032003 21 0 0.0 0.0 0.00 0.00 0.00 94 1015.4
20260906031504 21 0 0.0 0.0 0.00 0.00 0.00 94 1015.3
20260906031004 21 0 0.0 0.0 0.00 0.00 0.00 93 1015.4
20260906030504 21 0 0.0 0.0 0.00 0.00 0.00 94 1015.4
20260906030004 21 0 0.0 0.0 0.00 0.00 0.00 93 1015.4
20260906025504 21 0 0.0 0.0 0.00 0.00 0.00 93 1015.4
20260906025003 22 0 0.0 0.0 0.00 0.00 0.00 93 1015.2
20260906024504 22 0 0.0 0.0 0.00 0.00 0.00 93 1015.2
20260906024003 22 34 0.0 3.2 0.00 0.00 0.00 93 1015.2
20260906023504 22 34 0.0 3.2 0.00 0.00 0.00 93 1015.2
20260906023004 22 80 0.0 1.6 0.00 0.00 0.00 93 1015.1
20260906022503 22 80 0.0 1.6 0.00 0.00 0.00 93 1015.0
20260906022004 22 0 0.0 0.0 0.00 0.00 0.00 93 1015.1
20260906021503 22 0 0.0 0.0 0.00 0.00 0.00 93 1015.2
20260906021003 22 0 0.0 0.0 0.00 0.00 0.00 93 1015.1
20260906020504 22 0 0.0 0.0 0.00 0.00 0.00 93 1015.1
20260906020003 22 0 0.0 0.0 0.00 0.00 0.00 92 1015.0
20260906015504 22 0 0.0 0.0 0.00 0.00 0.00 92 1015.1
20260906015004 22 0 0.0 0.0 0.00 0.00 0.00 92 1015.0
20260906014503 22 0 0.0 0.0 0.00 0.00 0.00 92 1014.9
20260906014004 22 0 0.0 0.0 0.00 0.00 0.00 92 1014.9
20260906013503 22 74 0.0 3.2 0.00 0.00 0.00 92 1014.9
20260906013004 22 72 0.0 3.2 0.00 0.00 0.00 91 1014.7
20260906012503 23 63 0.0 3.2 0.00 0.00 0.00 91 1014.6
20260906012004 23 0 0.0 0.0 0.00 0.00 0.00 91 1014.6
20260906011504 23 0 0.0 0.0 0.00 0.00 0.00 90 1014.5
20260906011003 23 0 0.0 0.0 0.00 0.00 0.00 90 1014.5
20260906010503 23 90 1.6 4.8 0.00 0.00 0.00 90 1014.4
20260906010004 23 89 1.6 4.8 0.00 0.00 0.00 90 1014.4
20260906005504 23 90 1.6 4.8 0.00 0.00 0.00 90 1014.5
20260906005004 23 89 1.6 6.4 0.00 0.00 0.00 90 1014.5
20260906004503 23 87 0.0 6.4 0.00 0.00 0.00 89 1014.4
20260906004004 24 81 0.0 3.2 0.00 0.00 0.00 88 1014.1
20260906003503 24 0 0.0 0.0 0.00 0.00 0.00 86 1014.0
20260906003003 24 0 0.0 0.0 0.00 0.00 0.00 85 1014.1
20260906002504 25 0 0.0 0.0 0.00 0.00 0.00 85 1014.2
20260906002003 25 0 0.0 0.0 0.00 0.00 0.00 85 1014.0
20260906001504 25 0 0.0 0.0 0.00 0.00 0.00 85 1014.0
20260906001003 25 0 0.0 0.0 0.00 0.00 0.00 85 1014.0
20260906000503 25 0 0.0 0.0 0.00 0.00 0.00 85 1014.1
20260906000004 25 0 0.0 0.0 0.00 0.00 0.00 84 1014.0
20260905235503 25 196 0.0 1.6 0.00 0.00 0.00 82 1013.9
20260905235004 26 196 0.0 1.6 0.00 0.00 0.00 81 1013.8
20260905234503 26 0 0.0 0.0 0.00 0.00 0.00 78 1013.7
20260905234004 26 0 0.0 0.0 0.00 0.00 0.00 78 1013.8
20260905233503 27 0 0.0 0.0 0.00 0.00 0.00 76 1013.9
20260905233004 27 0 0.0 0.0 0.00 0.00 0.00 75 1013.9
20260905232503 28 0 0.0 0.0 0.00 0.00 0.00 74 1013.9
20260905232004 28 208 0.0 1.6 0.00 0.00 0.00 72 1013.8
20260905231504 29 208 0.0 1.6 0.00 0.00 0.00 71 1013.7
20260905231004 29 293 0.0 1.6 0.00 0.00 0.00 67 1013.7
20260905230503 29 293 0.0 1.6 0.00 0.00 0.00 67 1013.6
20260905230003 29 288 0.0 3.2 0.00 0.00 0.00 68 1013.6
20260905225504 29 285 0.0 3.2 0.00 0.00 0.00 67 1013.7
20260905225003 29 279 0.0 3.2 0.00 0.00 0.00 66 1013.7
20260905224503 29 289 0.0 3.2 0.00 0.00 0.00 65 1013.7
20260905224004 29 296 0.0 3.2 0.00 0.00 0.00 65 1013.7
20260905223503 29 298 0.0 3.2 0.00 0.00 0.00 65 1013.7
20260905223003 29 324 1.6 3.2 0.00 0.00 0.00 65 1013.8
20260905222503 29 316 1.6 6.4 0.00 0.00 0.00 65 1013.8
20260905222004 29 309 1.6 6.4 0.00 0.00 0.00 64 1013.7
20260905221504 30 309 0.0 4.8 0.00 0.00 0.00 64 1013.7
20260905221003 30 299 1.6 4.8 0.00 0.00 0.00 65 1013.7
20260905220503 30 286 1.6 4.8 0.00 0.00 0.00 65 1013.8
20260905220004 29 295 1.6 4.8 0.00 0.00 0.00 64 1013.7
20260905215504 29 292 1.6 4.8 0.00 0.00 0.00 63 1013.8
20260905215004 30 306 1.6 4.8 0.00 0.00 0.00 63 1013.8
20260905214503 29 330 3.2 6.4 0.00 0.00 0.00 66 1014.0
20260905214003 29 308 3.2 6.4 0.00 0.00 0.00 66 1014.0
20260905213504 29 297 1.6 6.4 0.00 0.00 0.00 65 1014.0
20260905213004 29 289 1.6 6.4 0.00 0.00 0.00 65 1014.1
20260905212503 29 257 1.6 4.8 0.00 0.00 0.00 66 1014.0
20260905212003 29 233 1.6 6.4 0.00 0.00 0.00 68 1014.1
20260905211503 28 242 1.6 6.4 0.00 0.00 0.00 67 1014.0
20260905211004 28 259 0.0 6.4 0.00 0.00 0.00 67 1014.0
20260905210503 28 257 0.0 3.2 0.00 0.00 0.00 70 1014.0
20260905210004 28 228 1.6 3.2 0.00 0.00 0.00 71 1013.9
20260905205504 27 248 1.6 6.4 0.00 0.00 0.00 74 1014.0
20260905205004 27 220 1.6 8.0 0.00 0.00 0.00 73 1014.1
20260905204503 27 219 1.6 8.0 0.00 0.00 0.00 74 1014.3
20260905204004 27 228 1.6 6.4 0.00 0.00 0.00 74 1014.5
20260905203504 27 224 1.6 6.4 0.00 0.00 0.00 74 1014.6
20260905203004 27 196 1.6 4.8 0.00 0.00 0.00 77 1014.6
20260905202503 27 192 1.6 6.4 0.00 0.00 0.00 77 1014.6
20260905202003 26 209 0.0 6.4 0.00 0.00 0.00 78 1014.7
20260905201504 26 231 0.0 1.6 0.00 0.00 0.00 80 1014.6
20260905201004 26 0 0.0 0.0 0.00 0.00 0.00 80 1014.7
20260905200504 26 229 0.0 1.6 0.00 0.00 0.00 82 1014.7
20260905200004 26 221 0.0 3.2 0.00 0.00 0.00 82 1014.8
20260905195503 25 208 0.0 3.2 0.00 0.00 0.00 82 1014.8
20260905195004 25 185 0.0 3.2 0.00 0.00 0.00 82 1014.8
20260905194503 25 177 0.0 3.2 0.00 0.00 0.00 83 1014.9
20260905194004 25 175 0.0 3.2 0.00 0.00 0.00 82 1015.0
20260905193503 25 245 0.0 3.2 0.00 0.00 0.00 84 1015.3
20260905193004 25 247 0.0 3.2 0.00 0.00 0.00 83 1015.3
20260905192504 24 272 0.0 3.2 0.00 0.00 0.00 83 1015.2
20260905192004 24 263 1.6 3.2 0.00 0.00 0.00 84 1015.1
20260905191504 25 213 3.2 6.4 0.00 0.00 0.00 84 1015.1
20260905191003 25 134 3.2 11.3 0.00 0.00 0.00 83 1015.1
20260905190504 25 129 1.6 11.3 0.00 0.00 0.00 82 1014.8
20260905190004 25 119 0.0 8.0 0.00 0.00 0.00 81 1014.9
20260905185503 25 310 1.6 4.8 0.00 0.00 0.00 78 1014.7
20260905185004 25 296 3.2 4.8 0.00 0.00 0.00 76 1014.7
20260905184503 25 158 4.8 8.0 0.00 0.00 0.00 74 1014.2
20260905184004 26 159 4.8 8.0 0.00 0.00 0.00 74 1013.9
20260905183503 26 163 3.2 8.0 0.00 0.00 0.00 72 1014.2
20260905183004 26 177 1.6 8.0 0.00 0.00 0.00 74 1014.4
20260905182503 26 193 1.6 6.4 0.00 0.00 0.00 71 1014.6
20260905182004 26 33 3.2 6.4 0.00 0.00 0.00 72 1014.3
20260905181503 26 93 4.8 14.5 0.00 0.00 0.00 70 1014.5
20260905181004 26 116 3.2 14.5 0.00 0.00 0.00 72 1015.0
20260905180503 26 122 1.6 11.3 0.00 0.00 0.00 74 1015.3
20260905180004 26 117 4.8 11.3 0.00 0.00 0.00 73 1015.4
20260905175503 26 62 8.0 19.3 0.00 0.00 0.00 73 1015.4
20260905175004 26 57 12.9 20.9 0.00 0.00 0.00 73 1015.7
20260905174504 27 45 14.5 37.0 0.00 0.00 0.00 68 1015.9
20260905174003 28 29 11.3 46.7 0.00 0.00 0.00 61 1016.2
20260905173504 31 6 6.4 46.7 0.00 0.00 0.00 57 1016.4
20260905173004 33 297 3.2 16.1 0.00 0.00 0.00 60 1016.0
20260905172503 33 289 1.6 16.1 0.00 0.00 0.00 58 1015.8
20260905172004 34 283 1.6 6.4 0.00 0.00 0.00 55 1015.8
20260905171503 34 304 1.6 6.4 0.00 0.00 0.00 58 1015.9
20260905171004 34 271 3.2 6.4 0.00 0.00 0.00 59 1015.9
20260905170503 33 256 3.2 6.4 0.00 0.00 0.00 56 1016.0
20260905170004 33 281 1.6 9.7 0.00 0.00 0.00 57 1016.0
20260905165503 33 277 1.6 9.7 0.00 0.00 0.00 55 1016.1
20260905165004 34 248 1.6 8.0 0.00 0.00 0.00 59 1016.2
20260905164503 33 247 3.2 8.0 0.00 0.00 0.00 59 1016.2
20260905164004 33 239 1.6 8.0 0.00 0.00 0.00 58 1016.1
20260905163503 33 285 1.6 6.4 0.00 0.00 0.00 61 1016.2
20260905163004 33 308 1.6 6.4 0.00 0.00 0.00 59 1016.3
20260905162503 33 292 1.6 6.4 0.00 0.00 0.00 57 1016.4
20260905162004 33 295 3.2 9.7 0.00 0.00 0.00 62 1016.5
20260905161504 33 237 3.2 9.7 0.00 0.00 0.00 60 1016.6
20260905161004 33 193 3.2 8.0 0.00 0.00 0.00 59 1016.7
20260905160504 33 204 1.6 8.0 0.00 0.00 0.00 58 1016.7
20260905160004 33 223 1.6 6.4 0.00 0.00 0.00 60 1016.9
20260905155503 33 234 1.6 6.4 0.00 0.00 0.00 59 1016.9
20260905155004 33 195 1.6 8.0 0.00 0.00 0.00 58 1016.9
20260905154503 33 202 1.6 8.0 0.00 0.00 0.00 60 1016.9
20260905154004 32 223 1.6 8.0 0.00 0.00 0.00 62 1016.8
20260905153503 32 226 1.6 8.0 0.00 0.00 0.00 64 1016.8
20260905153004 32 229 1.6 8.0 0.00 0.00 0.00 63 1016.7
20260905152503 32 231 1.6 6.4 0.00 0.00 0.00 62 1016.7
20260905152004 32 245 1.6 9.7 0.00 0.00 0.00 63 1016.7
20260905151503 32 249 1.6 9.7 0.00 0.00 0.00 64 1016.7
20260905151004 32 225 1.6 6.4 0.00 0.00 0.00 67 1016.7
20260905150503 31 219 1.6 6.4 0.00 0.00 0.00 65 1016.7
20260905150004 31 220 1.6 6.4 0.00 0.00 0.00 66 1016.6
20260905145504 31 218 1.6 6.4 0.00 0.00 0.00 68 1016.7
20260905145003 31 214 1.6 6.4 0.00 0.00 0.00 71 1016.7
20260905144504 31 201 0.0 6.4 0.00 0.00 0.00 69 1016.7
20260905144004 30 232 0.0 4.8 0.00 0.00 0.00 72 1016.7
20260905143503 30 264 0.0 4.8 0.00 0.00 0.00 73 1016.7
20260905143004 30 231 0.0 6.4 0.00 0.00 0.00 74 1016.8
20260905142503 30 232 0.0 6.4 0.00 0.00 0.00 73 1016.8
20260905142004 30 242 0.0 4.8 0.00 0.00 0.00 74 1016.8
20260905141504 30 240 0.0 4.8 0.00 0.00 0.00 74 1016.7
20260905141003 29 237 0.0 3.2 0.00 0.00 0.00 75 1016.8
20260905140503 29 253 0.0 3.2 0.00 0.00 0.00 75 1016.7
20260905140004 28 251 0.0 3.2 0.00 0.00 0.00 77 1016.7
20260905135503 28 199 0.0 1.6 0.00 0.00 0.00 78 1016.8
20260905135004 28 156 0.0 3.2 0.00 0.00 0.00 79 1016.8
20260905134504 28 151 0.0 3.2 0.00 0.00 0.00 80 1016.7
20260905134004 28 139 0.0 1.6 0.00 0.00 0.00 80 1016.8
20260905133503 27 188 0.0 1.6 0.00 0.00 0.00 82 1016.8
20260905133004 27 151 0.0 1.6 0.00 0.00 0.00 83 1016.8
20260905132504 26 170 0.0 1.6 0.00 0.00 0.00 86 1016.8
20260905132004 26 271 0.0 1.6 0.00 0.00 0.00 86 1016.9
20260905131503 26 282 0.0 1.6 0.00 0.00 0.00 86 1016.9
20260905131004 26 270 0.0 1.6 0.00 0.00 0.00 87 1017.0
20260905130503 25 242 0.0 1.6 0.00 0.00 0.00 88 1017.0
20260905130004 25 258 0.0 1.6 0.00 0.00 0.00 88 1017.0
20260905125503 25 276 0.0 1.6 0.00 0.00 0.00 89 1017.1
20260905125004 25 262 0.0 1.6 0.00 0.00 0.00 90 1017.1
20260905124503 25 250 0.0 1.6 0.00 0.00 0.00 91 1017.0
20260905124004 25 262 0.0 1.6 0.00 0.00 0.00 92 1017.0
20260905123503 25 270 0.0 1.6 0.00 0.00 0.00 95 1016.9
20260905123004 24 0 0.0 0.0 0.00 0.00 0.00 96 1016.9
20260905122503 23 256 0.0 1.6 0.00 0.00 0.00 96 1017.0
20260905122004 23 256 0.0 1.6 0.00 0.00 0.00 97 1017.0
20260905121503 23 0 0.0 0.0 0.00 0.00 0.00 97 1016.9
20260905121004 22 0 0.0 0.0 0.00 0.00 0.00 97 1016.9
20260905120503 22 0 0.0 0.0 0.00 0.00 0.00 97 1016.8
20260905120003 22 0 0.0 0.0 0.00 0.00 0.00 97 1016.8
20260905115504 22 0 0.0 0.0 0.00 0.00 0.00 97 1016.7
20260905115003 22 0 0.0 0.0 0.00 0.00 0.00 97 1016.6
20260905114504 22 0 0.0 0.0 0.00 0.00 0.00 97 1016.6
20260905114003 22 0 0.0 0.0 0.00 0.00 0.00 97 1016.6
20260905113503 21 0 0.0 0.0 0.00 0.00 0.00 97 1016.4
20260905113004 21 0 0.0 0.0 0.00 0.00 0.00 97 1016.3
20260905112503 21 0 0.0 0.0 0.00 0.00 0.00 97 1016.3
20260905112004 21 0 0.0 0.0 0.00 0.00 0.00 97 1016.2
20260905111503 21 0 0.0 0.0 0.00 0.00 0.00 97 1016.1
20260905111004 21 142 0.0 1.6 0.00 0.00 0.00 97 1016.0
20260905110503 22 142 0.0 1.6 0.00 0.00 0.00 97 1015.9
20260905110004 22 0 0.0 0.0 0.00 0.00 0.00 97 1015.8
20260905105503 21 0 0.0 0.0 0.00 0.00 0.00 97 1015.8
20260905105004 21 0 0.0 0.0 0.00 0.00 0.00 97 1015.8
20260905104503 21 0 0.0 0.0 0.00 0.00 0.00 97 1015.8
20260905104003 22 0 0.0 0.0 0.00 0.00 0.00 97 1015.7
20260905103504 22 0 0.0 0.0 0.00 0.00 0.00 97 1015.7
20260905103003 22 0 0.0 0.0 0.00 0.00 0.00 97 1015.7
20260905102504 22 0 0.0 0.0 0.00 0.00 0.00 97 1015.7
20260905102004 22 0 0.0 0.0 0.00 0.00 0.00 97 1015.6
20260905101504 22 0 0.0 0.0 0.00 0.00 0.00 96 1015.7
20260905101004 22 0 0.0 0.0 0.00 0.00 0.00 96 1015.6
20260905100503 22 0 0.0 0.0 0.00 0.00 0.00 96 1015.6
20260905100004 22 0 0.0 0.0 0.00 0.00 0.00 97 1015.6
20260905095503 22 0 0.0 0.0 0.00 0.00 0.00 97 1015.6
20260905095004 22 0 0.0 0.0 0.00 0.00 0.00 97 1015.6
20260905094503 22 0 0.0 0.0 0.00 0.00 0.00 97 1015.6
20260905094004 22 0 0.0 0.0 0.00 0.00 0.00 97 1015.5
20260905093503 22 0 0.0 0.0 0.00 0.00 0.00 97 1015.5
20260905093004 22 0 0.0 0.0 0.00 0.00 0.00 96 1015.6
20260905092504 22 0 0.0 0.0 0.00 0.00 0.00 96 1015.5
20260905092004 22 0 0.0 0.0 0.00 0.00 0.00 96 1015.6
20260905091503 22 0 0.0 0.0 0.00 0.00 0.00 96 1015.6
20260905091004 22 0 0.0 0.0 0.00 0.00 0.00 97 1015.6
20260905090503 22 0 0.0 0.0 0.00 0.00 0.00 96 1015.5
20260905090004 22 0 0.0 0.0 0.00 0.00 0.00 96 1015.6
20260905085503 22 0 0.0 0.0 0.00 0.00 0.00 96 1015.7
20260905085004 22 0 0.0 0.0 0.00 0.00 0.00 96 1015.6
20260905084503 22 0 0.0 0.0 0.00 0.00 0.00 96 1015.7
20260905084003 22 0 0.0 0.0 0.00 0.00 0.00 96 1015.8
20260905083503 22 0 0.0 0.0 0.00 0.00 0.00 96 1015.8
20260905083003 22 0 0.0 0.0 0.00 0.00 0.00 96 1015.9
20260905082504 22 0 0.0 0.0 0.00 0.00 0.00 96 1015.9
20260905082004 22 0 0.0 0.0 0.00 0.00 0.00 96 1015.9
20260905081503 22 0 0.0 0.0 0.00 0.00 0.00 96 1016.0
20260905081004 22 0 0.0 0.0 0.00 0.00 0.00 96 1016.1
20260905080504 22 0 0.0 0.0 0.00 0.00 0.00 96 1016.1
20260905080004 22 0 0.0 0.0 0.00 0.00 0.00 96 1016.2
20260905075504 22 0 0.0 0.0 0.00 0.00 0.00 96 1016.2
20260905075003 22 0 0.0 0.0 0.00 0.00 0.00 96 1016.2
20260905074504 22 0 0.0 0.0 0.00 0.00 0.00 96 1016.3
20260905074003 22 0 0.0 0.0 0.00 0.00 0.00 96 1016.3
20260905073504 22 0 0.0 0.0 0.00 0.00 0.00 96 1016.4
20260905073003 22 0 0.0 0.0 0.00 0.00 0.00 96 1016.5
20260905072503 22 0 0.0 0.0 0.00 0.00 0.00 96 1016.5
20260905072004 22 0 0.0 0.0 0.00 0.00 0.00 96 1016.5
20260905071504 22 0 0.0 0.0 0.00 0.00 0.00 96 1016.5
20260905071004 22 0 0.0 0.0 0.00 0.00 0.00 95 1016.5
20260905070503 22 0 0.0 0.0 0.00 0.00 0.00 95 1016.5
20260905070004 22 284 0.0 3.2 0.00 0.00 0.00 95 1016.6
20260905065503 22 289 0.0 3.2 0.00 0.00 0.00 95 1016.6
20260905065003 23 291 0.0 3.2 0.00 0.00 0.00 95 1016.6
20260905064503 23 0 0.0 0.0 0.00 0.00 0.00 95 1016.6
20260905064004 23 0 0.0 0.0 0.00 0.00 0.00 95 1016.6
20260905063504 23 0 0.0 0.0 0.00 0.00 0.00 95 1016.7
20260905063004 23 0 0.0 0.0 0.00 0.00 0.00 95 1016.8
20260905062503 23 0 0.0 0.0 0.00 0.00 0.00 95 1016.9
20260905062004 23 0 0.0 0.0 0.00 0.00 0.00 95 1017.0
20260905061503 23 0 0.0 0.0 0.00 0.00 0.00 95 1017.1
20260905061004 23 89 0.0 1.6 0.00 0.00 0.00 95 1017.1
20260905060503 23 91 0.0 1.6 0.00 0.00 0.00 95 1017.2
20260905060004 23 109 0.0 1.6 0.00 0.00 0.00 95 1017.3
20260905055504 23 0 0.0 0.0 0.00 0.00 0.00 95 1017.4
20260905055004 23 0 0.0 0.0 0.00 0.00 0.00 94 1017.4
20260905054503 23 0 0.0 0.0 0.00 0.00 0.00 94 1017.4
20260905054004 23 0 0.0 0.0 0.00 0.00 0.00 94 1017.5
20260905053504 23 0 0.0 0.0 0.00 0.00 0.00 94 1017.6
20260905053003 23 0 0.0 0.0 0.00 0.00 0.00 94 1017.6
20260905052503 23 0 0.0 0.0 0.00 0.00 0.00 94 1017.6
20260905052004 23 0 0.0 0.0 0.00 0.00 0.00 94 1017.7
20260905051504 23 0 0.0 0.0 0.00 0.00 0.00 94 1017.7
20260905051004 23 0 0.0 0.0 0.00 0.00 0.00 94 1017.7
20260905050503 23 0 0.0 0.0 0.00 0.00 0.00 93 1017.7
20260905050004 23 0 0.0 0.0 0.00 0.00 0.00 93 1017.6
20260905045503 23 0 0.0 0.0 0.00 0.00 0.00 93 1017.6
20260905045004 23 0 0.0 0.0 0.00 0.00 0.00 93 1017.6
20260905044504 23 0 0.0 0.0 0.00 0.00 0.00 93 1017.6